Tracking 28790 objects as of 19-Apr-2024
HD Live streaming from Space Station
objects crossing your sky now

NOAA 14 DEB

Track NOAA 14 DEB now!
10-day predictions


NORAD ID: 38732
Int'l Code: 1994-089D
Perigee: 801.4 km
Apogee: 822.1 km
Inclination: 98.7 °
Period: 101.0 minutes
Semi major axis: 7182 km
RCS: 0.7 m2 (medium)
Launch date: December 30, 1994
Source: United States (US)
Launch site: AIR FORCE WESTERN TEST RANGE (AFWTR)

Note: This is SATELLITE DEBRIS
Your satellite tracking list
Your tracking list is empty




NASA's NSSDC Master Catalog

Two Line Element Set (TLE):
1 38732U 94089D   24110.16864787  .00008950  00000-0  37492-2 0  9997
2 38732  98.6526 197.7158 0014388 183.9915 176.1153 14.26157076607959
Source of the keplerian elements: AFSPC